Regional Weather Roundup
Issued by NWS Green Bay, WI

Home | Current Version | Previous Version | Graphics & Text | Print | Product List | Glossary Off
Versions: 1 2 3 4 5 6 7 8 9 10 11 12 13 14 15 16 17 18 19 20 21 22 23 24 25 26 27 28 29 30 31 32 33 34 35 36 37 38 39 40 41 42 43 44 45 46 47 48 49 50

000
ASUS43 KGRB 200011
RWRGRB

NORTH-CENTRAL AND NORTHEAST WISCONSIN REGIONAL WEATHER ROUNDUP
NATIONAL WEATHER SERVICE GREEN BAY WI
600 PM CST THU JAN 19 2017

WIZ005-009-010>012-018-019-200100-
NORTH CENTRAL WISCONSIN

CITY           SKY/WX    TMP DP  RH WIND       PRES   REMARKS
IRONWOOD       CLEAR     45  34  65 S7        29.77S
MANITOWISH WTR CLEAR     37  33  87 S5        29.78S
ARBOR VITAE    CLEAR     37  32  84 S5        29.80R
EAGLE RIVER    CLEAR     37  30  75 CALM      29.79F
LAND O LAKES   CLEAR     38  32  78 CALM      29.80F
RHINELANDER    CLEAR     36  32  85 S6        29.82R
PHILLIPS       PTCLDY    36  32  83 S7        29.79R
ANTIGO         FOG       30  30 100 S7        29.84S VSB 1/2
TOMAHAWK       CLOUDY    32  31  95 CALM      29.83R FOG
MERRILL        CLOUDY    32  32 100 CALM        N/A  FOG
$$

WIZ013-073-200100-
NORTHEAST WISCONSIN

CITY           SKY/WX    TMP DP  RH WIND       PRES   REMARKS
IRON MOUNTAIN  CLOUDY    32  30  92 SE6       29.83S FOG
MARINETTE      NOT AVBL
OCONTO         CLOUDY    32  31  96 S3        29.88F
$$

WIZ017-030-035>037-045-200100-
CENTRAL WISCONSIN

CITY           SKY/WX    TMP DP  RH WIND       PRES   REMARKS
MEDFORD        FOG       31  30  98 CALM      29.81S VSB 1/2
WAUSAU         CLOUDY    32  31  96 SE8       29.83R FOG
MOSINEE        MOCLDY    32  32 100 E5        29.84S FOG
MARSHFIELD     FOG       32  31  96 E8        29.82R VSB 1/4
WISC RAPIDS    CLEAR     34  32  92 CALM      29.84F
STEVENS POINT  CLOUDY    32  32 100 NE3       29.84F FOG
WAUPACA        CLOUDY    33  31  92 CALM      29.86F FOG
SHAWANO        CLOUDY    33  32  95 CALM      29.88S FOG
CLINTONVILLE   CLOUDY    32  32 100 CALM      29.87S FOG
WAUTOMA        MOCLDY    32  31  96 E3        29.86F FOG
$$

WIZ038-039-048-051-200100-
FOX VALLEY

CITY           SKY/WX    TMP DP  RH WIND       PRES   REMARKS
NWS GREEN BAY  FOG       33  33 100 CALM      29.87F VSB 1/4
APPLETON       FOG       32  32 100 CALM      29.84F VSB 1/2
OSHKOSH        FOG       33  32  96 CALM      29.85F VSB 1/4
FOND DU LAC    FOG       34  32  92 CALM      29.85F VSB 1/4
$$

WIZ022-050-052-200100-
EAST CENTRAL WISCONSIN

CITY           SKY/WX    TMP DP  RH WIND       PRES   REMARKS
EPHRAIM        FOG       32  32 100 S5        29.89R VSB 1/2
WASHINGTON ISL FOG       32  32 100 S8        29.90R VSB 3/4
STURGEON BAY   FOG       32  31  96 S7        29.89F VSB 1/2
MANITOWOC      FOG       33  32  96 SE3       29.88F VSB 1/4
SHEBOYGAN      FOG       32  30  92 CALM      29.87F VSB 1/4
$$

LMZ563-521-522-541>543-200100-
LAKESHORE

STATION/POSITION TIME  TEMP    WIND        PRES    VSBY  WAVE
                       AIR SEA DIR/SP/G                  HT/PER
                 (UTC) (F)     (DEG/KT/KT) (MB)    (MI)  (FT/S)
SHEBOYGAN LKSHOR 0000   34     190/  5/  5 1012.3R
KEWAUNEE LKSHORE 2342   33     190/  6/  9 1011.7F
ALGOMA MARINA    2339          220/  8/ 10   N/A
NORTHPORT PIER   2340   33      CALM  /  5 1012.5R
SISTER BAY LKSHO 2350   33     180/  8/ 10   N/A
MENOMINEE LKSHOR 2300                      1011.2
$$




USA.gov is the U.S. government's official web portal to all federal, state and local government web resources and services.